Regional Weather Roundup
Issued by NWS

Home | Current Version | Previous Version | Text Only | Print | Product List | Glossary On
Versions: 1 2 3 4 5 6 7 8 9 10 11 12 13 14 15 16 17 18 19 20 21 22 23 24 25 26 27 28 29 30 31 32 33 34 35 36 37 38 39 40 41 42 43 44 45 46 47 48 49 50
000
ASUS43 KDTX 242010
RWRMI
MICHIGAN HOURLY REGIONAL WEATHER ROUNDUP
NATIONAL WEATHER SERVICE DETROIT/PONTIAC MI
300 PM EST WED DEC 24 2014

NOTE: "FAIR" INDICATES FEW OR NO CLOUDS BELOW 12,000 FEET WITH NO
SIGNIFICANT WEATHER AND/OR OBSTRUCTION TO VISIBILITY.

MIZ047>049-052>055-059>063-066>070-074>076-081>083-242100-
SOUTHEAST LOWER MICHIGAN

CITY           SKY/WX    TMP DP  RH WIND       PRES   REMARKS
ADRIAN         LGT RAIN  42  41  96 N12       29.31F FOG
ALMA           LGT RAIN  37  37 100 N9        29.38F WCI  31
ANN ARBOR      CLOUDY    43  41  93 N9        29.30F
BAD AXE        MIX PCPN  40  40 100 N6        29.36F
CARO           RAIN      40  39  96 N10       29.36F WCI  33
DETROIT CITY   LGT RAIN  52  50  93 S5        29.31F FOG
DETROIT        LGT RAIN  47  46  97 NW12      29.32F FOG
FLINT          RAIN      40  37  89 N13       29.34F FOG     WCI  32
GROSSE ILE     FOG       50  48  93 SE14      29.30F VSB 1/4
HILLSDALE      CLOUDY    40  40  99 N8        29.31F WCI  35
HOWELL         LGT RAIN  38  38 100 N6        29.32F WCI  34

CITY           SKY/WX    TMP DP  RH WIND       PRES   REMARKS
JACKSON        CLOUDY    39  37  92 N9        29.33F WCI  33
LAMBERTVILLE   HVY RAIN  45  43  93 NW6       29.31F
LANSING        CLOUDY    39  37  92 N13G18    29.35F WCI  31
LAPEER         MIX PCPN  41  40  97 N5        29.35F
MASON          CLOUDY    38  37  94 N6        29.34F WCI  33
MONROE         RAIN      48  48 100 NW12      29.30S
MT. CLEMENS    DRZL/FOG  46  46 100 SE9       29.29F VSB 1/2
PONTIAC        LGT RAIN  42  41  96 N8        29.31F FOG
PORT HOPE        N/A     38  37  97 NE12      29.33F WCI  30
PORT HURON     RAIN      46  46 100 CALM      29.32F VSB 1/2
TRI CITIES     RAIN      40  38  93 N14       29.38F FOG     WCI  32
TROY           DRIZZLE   47  45  94 W5        29.34F
SAGINAW HB     MIX PCPN  39  39 100 N8        29.38F WCI  34
$$
MIZ043>046-050>051-056>058-064>065-071>073-077>080-242100-
SOUTHWEST LOWER MICHIGAN

CITY           SKY/WX    TMP DP  RH WIND       PRES   REMARKS
BATTLE CREEK   LGT RAIN  40  37  89 N10       29.38S WCI  33
BENTON HARBOR  LGT RAIN  38  38 100 NW8       29.45S WCI  32
BIG RAPIDS     LGT RAIN  36  36 100 N5        29.41F WCI  32
COLDWATER      LGT RAIN  39  37  94 N10       29.34F WCI  32
FREMONT        CLOUDY    37  36  98 NW6       29.43F WCI  32
HOLLAND        LGT RAIN  41  37  86 NW7       29.43F
GRAND RAPIDS   LGT RAIN  38  36  92 N10       29.39F WCI  31
IONIA          LGT RAIN  39  38  99 N8        29.36F WCI  33
KALAMAZOO      RAIN      39  36  89 NW8       29.41R FOG     WCI  33
MARSHALL       LGT RAIN  38  37  95 N5        29.35S WCI  34
MOUNT PLEASANT LGT RAIN  37  36  98 CALM      29.40F
MUSKEGON       LGT RAIN  39  37  92 NW8       29.45F FOG     WCI  33
SOUTH HAVEN    LGT RAIN  40  38  93 NW8       29.43F WCI  34
$$
MIZ016>042-242100-
NORTHERN LOWER MICHIGAN

CITY           SKY/WX    TMP DP  RH WIND       PRES   REMARKS
ALPENA         LGT RAIN  37  36  96 NW9       29.43F WCI  30
BEAVER ISLAND  RAIN      37  36  97 CALM      29.47F
BELLAIRE       MIX PCPN  37  36  94 CALM      29.45F
CADILLAC       LGT RAIN  34  34  98 CALM      29.41F
CHARLEVOIX     LGT RAIN  37  37 100 CALM      29.48F
FRANKFORT      DRIZZLE   37  36  96 NW3       29.46F
GAYLORD        LGT SNOW  34  33  96 CALM      29.43S FOG
GRAYLING       LGT SNOW  33  33 100 CALM      29.43F
HARBOR SPRINGS LGT RAIN  35  34  99 CALM      29.46F
HOUGHTON LAKE  LGT SNOW  33  32  96 NW7       29.41F FOG     WCI  27
MANISTEE       CLOUDY    37  36  93 NW6       29.46F WCI  33
OSCODA         RAIN      39  39 100 N7        29.39F WCI  34
PELLSTON       LGT RAIN  35  34  96 N3        29.46F FOG
ROGERS CITY    DRIZZLE   37  37 100 NW7       29.46F WCI  31
TRAVERSE CITY  LGT RAIN  38  37  97 NW3       29.44F FOG
$$
MIZ007>008-015-242100-
EASTERN UPPER MICHIGAN

CITY           SKY/WX    TMP DP  RH WIND       PRES   REMARKS
KINROSS        CLOUDY    36  36 100 CALM      29.48F VSB<1/4
MACKINAC ISLAN SNOW      35  35 100 NE6       29.46F VSB 1/4 WCI  30
NEWBERRY       LGT RAIN  34  34 100 CALM      29.47F VSB 1/4
S. S. MARIE    LGT RAIN  36  35  96 NW3       29.48F FOG
MUNISING         N/A     37  32  82 N8        29.50F WCI  31
$$
MIZ004>006-011>014-085-242100-
CENTRAL UPPER MICHIGAN

CITY           SKY/WX    TMP DP  RH WIND       PRES   REMARKS
MANISTIQUE     LGT RAIN  35  35 100 N9        29.47F WCI  28
ESCANABA       CLOUDY    36  32  87 N7        29.49F WCI  30
MENOMINEE      CLOUDY    36  34  93 N8        29.48F WCI  29
SAWYER-GWINN   CLOUDY    30  28  93 N15       29.50F WCI  19
$$
MIZ001>003-009>011-084-242100-
WESTERN UPPER MICHIGAN

CITY           SKY/WX    TMP DP  RH WIND       PRES   REMARKS
IRON MOUNTAIN  CLOUDY    33  29  85 N9        29.48F WCI  25
HOUGHTON       FLURRIES  31  28  89 N6        29.52F WCI  25
COPPER HARBOR    N/A     32  29  88 E9        29.53F WCI  24
IRONWOOD       CLOUDY    30  30 100 N5        29.53F WCI  25
$$

ABBREVIATIONS USED IN REMARKS
   TC - TEMPERATURE IN CELSIUS
  WCI - WIND CHILL INDEX
   HX - HEAT INDEX
  VSB - VISIBILITY




USA.gov is the U.S. government's official web portal to all federal, state and local government web resources and services.